"Timestamp","TZ","WindDir_Mean (deg)","WindSpd_Mean (km/h)","WindSpd_Min (km/h)","WindSpd_Max (km/h)","Temp_Mean (deg)","RH_Mean (%)","MSLP_Mean (hPa)","Rain_Acc (mm)","Rain_Intensity (mm/h)","Hail_Acc (hits/cm2)","Hail_Intensity (hits/cm2hr)","Solar_Mean (W/m2)"
2022/06/10 00:00:00.015,n,272,16.2,11.52,21.96,10.4,51.2,1017.32,0,0,0,0,0.028725
2022/06/10 00:01:00.000,n,233,11.52,9.36,12.96,10.4,51.3,1017.32,0,0,0,0,0.028725
2022/06/10 00:02:00.000,n,259,10.8,8.28,13.32,10.3,51.3,1017.32,0,0,0,0,0.027885
2022/06/10 00:03:00.000,n,251,7.92,6.48,9.72,10.3,51.4,1017.32,0,0,0,0,0.028725
2022/06/10 00:04:00.004,n,259,7.92,6.84,9.72,10.3,51.6,1017.32,0,0,0,0,0.029602
2022/06/10 00:05:00.001,n,241,1.44,0.72,2.16,10.3,51.8,1017.32,0,0,0,0,0.029602
2022/06/10 00:06:00.000,n,263,11.16,9.72,12.6,10.3,51.5,1017.32,0,0,0,0,0.028725
2022/06/10 00:07:00.012,n,264,12.24,11.52,12.96,10.3,51.3,1017.42,0,0,0,0,0.030479
2022/06/10 00:08:00.008,n,300,10.440002,5.76,13.32,10.3,52,1017.32,0,0,0,0,0.028725
2022/06/10 00:09:00.006,n,248,5.76,5.4,6.84,10.3,51.9,1017.32,0,0,0,0,0.027885
2022/06/10 00:10:00.000,n,261,6.12,5.04,6.84,10.3,51.8,1017.32,0,0,0,0,0.026093
2022/06/10 00:11:00.000,n,255,10.08,9,12.24,10.2,51.5,1017.32,0,0,0,0,0.028725
2022/06/10 00:12:00.000,n,270,6.12,5.04,7.56,10.2,51.8,1017.42,0,0,0,0,0.028725
2022/06/10 00:13:00.000,n,256,10.08,7.92,11.16,10.2,51.6,1017.32,0,0,0,0,0.026093
2022/06/10 00:14:00.000,n,283,7.2,6.84,7.92,10.2,51.8,1017.42,0,0,0,0,0.023499
2022/06/10 00:15:00.006,n,260,12.24,10.440002,13.68,10.2,51.8,1017.42,0,0,0,0,0.027885
2022/06/10 00:16:00.003,n,264,9.36,7.92,10.440002,10.2,51.9,1017.42,0,0,0,0,0.026093
2022/06/10 00:17:00.000,n,268,10.08,9.72,10.8,10.1,51.9,1017.42,0,0,0,0,0.026093
2022/06/10 00:18:00.014,n,253,8.28,6.84,9.36,10.1,52,1017.42,0,0,0,0,0.023499
2022/06/10 00:19:00.000,n,281,9.72,8.64,10.8,10.1,52.2,1017.42,0,0,0,0,0.022621
2022/06/10 00:20:00.000,n,260,13.32,12.96,14.04,10.1,52,1017.42,0,0,0,0,0.027008
2022/06/10 00:21:00.000,n,315,5.76,4.68,7.56,10,52.8,1017.42,0,0,0,0,0.024376
2022/06/10 00:22:00.006,n,284,6.48,5.4,7.2,10,52.5,1017.42,0,0,0,0,0.021744
2022/06/10 00:23:00.003,n,271,15.12,14.76,16.2,10,52.1,1017.42,0,0,0,0,0.027008
2022/06/10 00:24:00.000,n,271,5.76,3.96,7.56,10,53,1017.42,0,0,0,0,0.023499
2022/06/10 00:25:00.000,n,251,14.4,12.24,16.56,10,52.2,1017.42,0,0,0,0,0.020905
2022/06/10 00:26:00.011,n,258,17.64,16.56,18.72,9.9,52.1,1017.42,0,0,0,0,0.023499
2022/06/10 00:27:00.016,n,271,12.96,11.52,14.76,9.9,52.5,1017.42,0,0,0,0,0.028725
2022/06/10 00:28:00.002,n,256,20.519998,18.359998,24.48,9.9,52.1,1017.42,0,0,0,0,0.033951
2022/06/10 00:29:00.000,n,261,5.4,3.6,9,9.9,52.6,1017.42,0,0,0,0,0.033112
2022/06/10 00:30:00.000,n,262,18.359998,15.48,20.880002,9.9,52.3,1017.32,0,0,0,0,0.033112
2022/06/10 00:31:00.000,n,264,7.92,7.2,8.64,9.9,52.8,1017.32,0,0,0,0,0.032234
2022/06/10 00:32:00.005,n,260,11.88,7.92,15.12,9.8,52.5,1017.32,0,0,0,0,0.031357
2022/06/10 00:33:00.010,n,284,9.36,6.12,13.32,9.8,52.5,1017.32,0,0,0,0,0.030518
2022/06/10 00:34:00.000,n,262,12.96,11.16,15.48,9.8,52.9,1017.32,0,0,0,0,0.031357
2022/06/10 00:35:00.005,n,257,16.919998,11.88,18.359998,9.8,52.5,1017.32,0,0,0,0,0.033112
2022/06/10 00:36:00.010,n,262,19.44,17.28,24.48,9.8,52.6,1017.32,0,0,0,0,0.031357
2022/06/10 00:37:00.000,n,275,13.68,5.76,18.72,9.8,52.6,1017.32,0,0,0,0,0.030518
2022/06/10 00:38:00.000,n,265,11.16,8.28,12.96,9.8,52.8,1017.32,0,0,0,0,0.030518
2022/06/10 00:39:00.000,n,273,7.56,5.4,10.440002,9.8,52.7,1017.32,0,0,0,0,0.029602
2022/06/10 00:40:00.000,n,279,15.84,10.08,19.8,9.7,52.9,1017.32,0,0,0,0,0.029602
2022/06/10 00:41:00.005,n,261,8.64,5.76,12.24,9.7,53.2,1017.32,0,0,0,0,0.029602
2022/06/10 00:42:00.010,n,276,8.28,6.48,9.36,9.7,53.2,1017.32,0,0,0,0,0.027885
2022/06/10 00:43:00.000,n,255,9,7.2,11.88,9.7,53.5,1017.32,0,0,0,0,0.020905
2022/06/10 00:44:00.003,n,258,19.08,13.32,22.68,9.7,53,1017.32,0,0,0,0,0.025253
2022/06/10 00:45:00.008,n,258,13.32,10.08,17.28,9.6,53.1,1017.32,0,0,0,0,0.026131
2022/06/10 00:46:00.000,n,256,5.76,2.88,9.72,9.6,53.9,1017.32,0,0,0,0,0.026131
2022/06/10 00:47:00.002,n,301,8.28,7.56,8.64,9.6,53.4,1017.32,0,0,0,0,0.025253
2022/06/10 00:48:00.000,n,239,7.56,5.76,8.64,9.6,53.5,1017.32,0,0,0,0,0.026131
2022/06/10 00:49:00.000,n,268,9.36,8.28,9.72,9.6,53.6,1017.32,0,0,0,0,0.024376
2022/06/10 00:50:00.001,n,280,12.96,11.16,14.4,9.5,53.5,1017.32,0,0,0,0,0.022659
2022/06/10 00:51:00.006,n,260,8.28,7.92,9.36,9.5,53.7,1017.32,0,0,0,0,0.023537
2022/06/10 00:52:00.011,n,260,7.56,6.12,9.72,9.5,53.7,1017.32,0,0,0,0,0.025253
2022/06/10 00:53:00.000,n,253,13.32,11.52,17.28,9.5,53.7,1017.32,0,0,0,0,0.026131
2022/06/10 00:54:00.005,n,260,16.919998,12.24,18.72,9.5,53.4,1017.32,0,0,0,0,0.024376
2022/06/10 00:55:00.000,n,231,10.440002,9.36,12.24,9.5,53.7,1017.32,0,0,0,0,0.025253
2022/06/10 00:56:00.000,n,263,11.52,10.08,14.04,9.5,53.9,1017.32,0,0,0,0,0.024376
2022/06/10 00:57:00.005,n,254,15.84,14.76,16.919998,9.5,53.7,1017.32,0,0,0,0,0.024376
2022/06/10 00:58:00.000,n,279,12.96,11.88,14.04,9.4,53.8,1017.32,0,0,0,0,0.022659
2022/06/10 00:59:00.000,n,273,17.64,14.76,19.08,9.4,53.7,1017.32,0,0,0,0,0.024376
2022/06/10 01:00:00.001,n,292,12.96,10.8,13.68,9.4,53.9,1017.42,0,0,0,0,0.031357
2022/06/10 01:01:00.007,n,274,16.2,14.04,18.359998,9.4,53.7,1017.32,0,0,0,0,0.030441
2022/06/10 01:02:00.012,n,284,11.52,9.72,15.12,9.4,54.2,1017.42,0,0,0,0,0.029602
2022/06/10 01:03:00.001,n,275,14.76,11.88,19.08,9.4,53.8,1017.42,0,0,0,0,0.028725
2022/06/10 01:04:00.000,n,281,22.319998,19.44,25.919998,9.4,53.5,1017.42,0,0,0,0,0.026093
2022/06/10 01:05:00.000,n,225,10.440002,5.04,15.48,9.4,53.8,1017.42,0,0,0,0,0.027885
2022/06/10 01:06:00.000,n,272,14.76,11.52,17.64,9.4,54,1017.42,0,0,0,0,0.026093
2022/06/10 01:07:00.005,n,282,10.440002,8.64,12.6,9.4,53.8,1017.42,0,0,0,0,0.024376
2022/06/10 01:08:00.000,n,255,16.2,15.12,19.08,9.4,53.5,1017.52,0,0,0,0,0.024376
2022/06/10 01:09:00.000,n,287,6.12,5.04,7.56,9.4,54.2,1017.52,0,0,0,0,0.023499
2022/06/10 01:10:00.005,n,268,14.04,10.8,16.2,9.4,53.7,1017.42,0,0,0,0,0.024376
2022/06/10 01:11:00.010,n,256,17.28,16.56,17.64,9.4,53.7,1017.52,0,0,0,0,0.022621
2022/06/10 01:12:00.015,n,297,9,7.92,11.16,9.4,53.8,1017.52,0,0,0,0,0.023499
2022/06/10 01:13:00.000,n,259,12.24,10.8,13.68,9.4,53.9,1017.52,0,0,0,0,0.021744
2022/06/10 01:14:00.000,n,261,15.84,13.32,17.64,9.4,53.8,1017.52,0,0,0,0,0.022621
2022/06/10 01:15:00.000,n,289,7.92,5.4,10.08,9.4,54.1,1017.52,0,0,0,0,0.022621
2022/06/10 01:16:00.003,n,270,14.4,6.84,18,9.4,53.8,1017.52,0,0,0,0,0.021744
2022/06/10 01:17:00.007,n,232,7.2,4.68,11.88,9.4,54.5,1017.62,0,0,0,0,0.027008
2022/06/10 01:18:00.000,n,286,12.24,10.8,12.6,9.4,54.2,1017.62,0,0,0,0,0.034828
2022/06/10 01:19:00.000,n,258,18,16.56,20.16,9.3,53.8,1017.62,0,0,0,0,0.033073
2022/06/10 01:20:00.005,n,256,13.68,11.52,15.12,9.3,54,1017.62,0,0,0,0,0.031357
2022/06/10 01:21:00.010,n,233,8.64,7.56,9.72,9.3,54.4,1017.62,0,0,0,0,0.033073
2022/06/10 01:22:00.000,n,281,7.2,6.84,8.64,9.3,54.4,1017.62,0,0,0,0,0.033073
2022/06/10 01:23:00.000,n,264,7.2,6.84,7.92,9.3,54.7,1017.72,0,0,0,0,0.030479
2022/06/10 01:24:00.000,n,280,7.2,6.12,8.64,9.2,54.6,1017.72,0,0,0,0,0.032234
2022/06/10 01:25:00.000,n,272,9.36,7.56,11.52,9.2,54.7,1017.62,0,0,0,0,0.033989
2022/06/10 01:26:00.005,n,231,3.24,1.44,5.76,9.2,55.1,1017.72,0,0,0,0,0.032234
2022/06/10 01:27:00.011,n,256,11.16,10.8,12.24,9.2,54.6,1017.72,0,0,0,0,0.032234
2022/06/10 01:28:00.000,n,281,14.4,11.16,16.919998,9.2,54.6,1017.72,0,0,0,0,0.031357
2022/06/10 01:29:00.004,n,286,11.16,9,14.04,9.2,54.8,1017.72,0,0,0,0,0.029602
2022/06/10 01:30:00.009,n,259,13.68,12.24,14.4,9.2,54.6,1017.72,0,0,0,0,0.031357
2022/06/10 01:31:00.000,n,283,12.24,10.440002,14.04,9.2,54.6,1017.72,0,0,0,0,0.029602
2022/06/10 01:32:00.003,n,272,11.52,11.16,11.88,9.2,54.7,1017.72,0,0,0,0,0.030479
2022/06/10 01:33:00.000,n,255,14.04,12.6,15.48,9.2,54.6,1017.72,0,0,0,0,0.030479
2022/06/10 01:34:00.000,n,254,6.84,5.4,9.36,9.1,55,1017.72,0,0,0,0,0.029602
2022/06/10 01:35:00.001,n,271,8.64,7.92,9,9.1,54.9,1017.72,0,0,0,0,0.026131
2022/06/10 01:36:00.007,n,257,12.24,11.88,12.96,9.1,54.9,1017.72,0,0,0,0,0.028725
2022/06/10 01:37:00.012,n,291,6.84,3.96,8.64,9.1,55.1,1017.72,0,0,0,0,0.031357
2022/06/10 01:38:00.001,n,270,11.16,8.64,12.24,9.1,54.8,1017.72,0,0,0,0,0.029602
2022/06/10 01:39:00.006,n,263,7.92,7.56,8.64,9.1,55,1017.72,0,0,0,0,0.027008
2022/06/10 01:40:00.000,n,240,7.92,7.56,8.28,9.1,55.2,1017.72,0,0,0,0,0.026131
2022/06/10 01:41:00.000,n,281,12.24,10.8,14.4,9.1,55.5,1017.72,0,0,0,0,0.028725
2022/06/10 01:42:00.005,n,275,11.16,9.72,11.52,9.1,55.1,1017.62,0,0,0,0,0.025253
2022/06/10 01:43:00.000,n,254,16.2,13.68,17.64,9.1,54.9,1017.62,0,0,0,0,0.027885
2022/06/10 01:44:00.000,n,250,10.8,9,11.88,9.1,55.1,1017.62,0,0,0,0,0.028725
2022/06/10 01:45:00.005,n,278,16.56,15.48,18.359998,9,54.8,1017.62,0,0,0,0,0.029602
2022/06/10 01:46:00.010,n,273,7.56,7.2,7.92,9,55,1017.62,0,0,0,0,0.029602
2022/06/10 01:47:00.000,n,255,11.88,10.8,12.24,9,55.2,1017.62,0,0,0,0,0.030479
2022/06/10 01:48:00.003,n,268,10.08,9.36,11.16,9,55.4,1017.62,0,0,0,0,0.032234
2022/06/10 01:49:00.000,n,281,3.6,2.52,4.32,9,55.4,1017.72,0,0,0,0,0.031357
2022/06/10 01:50:00.000,n,277,3.96,2.52,6.48,9,55.4,1017.62,0,0,0,0,0.024376
2022/06/10 01:51:00.002,n,277,6.12,5.4,6.84,9,55.3,1017.62,0,0,0,0,0.023499
2022/06/10 01:52:00.006,n,262,14.04,12.96,14.76,9,55.2,1017.62,0,0,0,0,0.029602
2022/06/10 01:53:00.000,n,276,11.52,10.08,12.24,9,55.7,1017.72,0,0,0,0,0.029602
2022/06/10 01:54:00.000,n,263,8.64,6.12,10.8,9,55.4,1017.72,0,0,0,0,0.028725
2022/06/10 01:55:00.005,n,279,13.68,9.72,14.76,9,55.3,1017.72,0,0,0,0,0.027008
2022/06/10 01:56:00.010,n,249,14.04,13.32,14.76,9,55,1017.62,0,0,0,0,0.027885
2022/06/10 01:57:00.016,n,288,9.72,8.64,11.16,9,55.1,1017.62,0,0,0,0,0.032234
2022/06/10 01:58:00.000,n,265,11.16,9,12.6,9,55.2,1017.62,0,0,0,0,0.032234
2022/06/10 01:59:00.000,n,259,11.88,10.8,12.96,9,55.2,1017.62,0,0,0,0,0.028725
2022/06/10 02:00:00.000,n,290,6.12,2.52,8.28,9,55.5,1017.52,0,0,0,0,0.029602
2022/06/10 02:01:00.002,n,292,8.28,6.12,9,8.9,55.6,1017.52,0,0,0,0,0.027885
2022/06/10 02:02:00.007,n,273,10.440002,7.56,14.4,8.9,55.5,1017.52,0,0,0,0,0.028725
2022/06/10 02:03:00.000,n,256,16.2,11.16,18,8.9,55.3,1017.52,0,0,0,0,0.027885
2022/06/10 02:04:00.001,n,259,10.08,7.92,11.88,8.9,55.8,1017.52,0,0,0,0,0.031357
2022/06/10 02:05:00.006,n,241,9.72,9,11.52,8.9,55.5,1017.52,0,0,0,0,0.029602
2022/06/10 02:06:00.011,n,255,15.48,13.32,16.919998,8.9,55.4,1017.52,0,0,0,0,0.029602
2022/06/10 02:07:00.000,n,255,7.2,6.48,7.92,8.9,55.7,1017.52,0,0,0,0,0.030479
2022/06/10 02:08:00.000,n,255,7.92,6.84,9,8.9,55.7,1017.52,0,0,0,0,0.032234
2022/06/10 02:09:00.000,n,290,11.16,9,14.76,8.9,55.7,1017.52,0,0,0,0,0.027008
2022/06/10 02:10:00.000,n,325,6.84,5.04,9,8.9,56.2,1017.52,0,0,0,0,0.027008
2022/06/10 02:11:00.004,n,275,9,6.48,10.8,8.9,55.8,1017.52,0,0,0,0,0.027885
2022/06/10 02:12:00.009,n,277,5.04,3.96,5.76,8.9,56,1017.52,0,0,0,0,0.025253
2022/06/10 02:13:00.000,n,261,6.12,5.04,7.92,8.9,55.9,1017.52,0,0,0,0,0.027008
2022/06/10 02:14:00.003,n,254,8.28,6.84,9.36,8.9,55.9,1017.52,0,0,0,0,0.025253
2022/06/10 02:15:00.009,n,224,6.12,3.96,8.64,8.9,56,1017.52,0,0,0,0,0.030479
2022/06/10 02:16:00.000,n,283,11.52,3.96,13.32,8.9,55.8,1017.52,0,0,0,0,0.029602
2022/06/10 02:17:00.002,n,245,5.04,3.96,6.48,8.9,55.8,1017.62,0,0,0,0,0.027008
2022/06/10 02:18:00.000,n,266,9,8.28,9.36,8.9,55.6,1017.52,0,0,0,0,0.025253
2022/06/10 02:19:00.000,n,257,7.92,4.32,11.52,8.9,55.7,1017.52,0,0,0,0,0.029602
2022/06/10 02:20:00.001,n,250,10.08,9.36,10.440002,8.9,55.7,1017.52,0,0,0,0,0.026131
2022/06/10 02:21:00.006,n,276,6.84,4.68,10.440002,8.9,55.8,1017.52,0,0,0,0,0.027008
2022/06/10 02:22:00.011,n,230,5.4,3.96,8.28,8.9,55.9,1017.52,0,0,0,0,0.027885
2022/06/10 02:23:00.000,n,262,12.6,9.72,15.12,8.9,55.7,1017.52,0,0,0,0,0.027008
2022/06/10 02:24:00.005,n,243,13.32,9.36,15.12,8.9,55.7,1017.52,0,0,0,0,0.023499
2022/06/10 02:25:00.000,n,263,11.88,10.08,13.32,8.9,55.7,1017.52,0,0,0,0,0.026131
2022/06/10 02:26:00.000,n,284,7.2,6.12,8.28,8.9,55.8,1017.52,0,0,0,0,0.027008
2022/06/10 02:27:00.003,n,300,4.68,3.96,5.76,8.9,55.9,1017.52,0,0,0,0,0.027885
2022/06/10 02:28:00.000,n,238,6.48,5.04,7.92,8.9,55.8,1017.52,0,0,0,0,0.028725
2022/06/10 02:29:00.000,n,263,9.72,7.2,11.16,8.9,55.6,1017.52,0,0,0,0,0.026131
2022/06/10 02:30:00.003,n,273,6.84,6.48,7.56,8.9,55.8,1017.52,0,0,0,0,0.025253
2022/06/10 02:31:00.009,n,259,6.84,4.68,8.28,8.8,56,1017.62,0,0,0,0,0.024376
2022/06/10 02:32:00.013,n,253,4.32,3.24,4.68,8.8,56,1017.62,0,0,0,0,0.026131
2022/06/10 02:33:00.002,n,277,4.68,4.32,5.04,8.8,56.1,1017.62,0,0,0,0,0.025253
2022/06/10 02:34:00.000,n,238,4.68,3.6,5.4,8.8,56.2,1017.62,0,0,0,0,0.024376
2022/06/10 02:35:00.000,n,269,5.4,4.32,6.48,8.8,56.1,1017.62,0,0,0,0,0.024376
2022/06/10 02:36:00.001,n,245,4.68,1.44,6.12,8.8,56.3,1017.62,0,0,0,0,0.027885
2022/06/10 02:37:00.000,n,245,5.4,5.04,5.76,8.8,56.3,1017.62,0,0,0,0,0.027008
2022/06/10 02:38:00.000,n,227,4.32,3.96,4.68,8.8,56.4,1017.62,0,0,0,0,0.028725
2022/06/10 02:39:00.001,n,244,9.36,7.2,12.24,8.7,56.3,1017.72,0,0,0,0,0.026131
2022/06/10 02:40:00.006,n,283,6.48,5.76,7.2,8.7,56.3,1017.72,0,0,0,0,0.031395
2022/06/10 02:41:00.010,n,263,7.56,6.48,8.28,8.7,56.4,1017.72,0,0,0,0,0.033989
2022/06/10 02:42:00.000,n,255,8.64,8.28,9,8.7,56.3,1017.72,0,0,0,0,0.03746
2022/06/10 02:43:00.000,n,259,9,7.2,10.08,8.8,56.2,1017.72,0,0,0,0,0.034904
2022/06/10 02:44:00.000,n,230,2.88,1.08,5.04,8.8,56.5,1017.72,0,0,0,0,0.03746
2022/06/10 02:45:00.000,n,255,12.96,11.88,13.32,8.7,56.2,1017.72,0,0,0,0,0.033989
2022/06/10 02:46:00.004,n,227,1.44,0.72,2.88,8.7,56.4,1017.72,0,0,0,0,0.034904
2022/06/10 02:47:00.010,n,263,4.68,4.32,5.04,8.7,56.6,1017.72,0,0,0,0,0.036621
2022/06/10 02:48:00.000,n,251,6.12,5.76,6.48,8.7,56.7,1017.72,0,0,0,0,0.036621
2022/06/10 02:49:00.003,n,263,7.2,6.48,7.92,8.7,56.6,1017.72,0,0,0,0,0.039253
2022/06/10 02:50:00.008,n,280,5.76,4.68,6.48,8.7,56.7,1017.72,0,0,0,0,0.035744
2022/06/10 02:51:00.014,n,275,0.72,0.36,0.72,8.7,56.8,1017.72,0,0,0,0,0.036621
2022/06/10 02:52:00.000,n,289,1.8,1.44,2.52,8.7,57,1017.72,0,0,0,0,0.035744
2022/06/10 02:53:00.000,n,300,2.88,2.52,3.96,8.6,56.9,1017.72,0,0,0,0,0.035744
2022/06/10 02:54:00.000,n,246,2.52,1.8,2.88,8.6,57.1,1017.72,0,0,0,0,0.036621
2022/06/10 02:55:00.001,n,224,1.8,1.44,1.8,8.6,57.3,1017.72,0,0,0,0,0.034904
2022/06/10 02:56:00.006,n,243,1.8,1.08,2.52,8.6,57.5,1017.62,0,0,0,0,0.033989
2022/06/10 02:57:00.000,n,257,6.48,6.12,7.2,8.6,57.5,1017.72,0,0,0,0,0.033989
2022/06/10 02:58:00.001,n,244,5.76,4.68,6.48,8.5,57.4,1017.62,0,0,0,0,0.033112
2022/06/10 02:59:00.006,n,242,5.04,4.68,6.12,8.5,57.5,1017.62,0,0,0,0,0.035744
2022/06/10 03:00:00.012,n,262,3.96,2.88,5.04,8.5,57.7,1017.62,0,0,0,0,0.036621
2022/06/10 03:01:00.002,n,262,5.4,4.68,6.48,8.5,57.5,1017.62,0,0,0,0,0.035744
2022/06/10 03:02:00.000,n,252,5.04,4.32,5.76,8.5,57.7,1017.72,0,0,0,0,0.036621
2022/06/10 03:03:00.000,n,264,4.68,3.24,6.12,8.5,57.8,1017.72,0,0,0,0,0.033112
2022/06/10 03:04:00.000,n,271,7.2,6.84,7.56,8.5,57.6,1017.72,0,0,0,0,0.035744
2022/06/10 03:05:00.006,n,270,9.36,8.28,10.08,8.5,57.6,1017.62,0,0,0,0,0.033989
2022/06/10 03:06:00.000,n,255,12.96,11.16,15.12,8.5,57,1017.62,0,0,0,0,0.033989
2022/06/10 03:07:00.000,n,251,7.92,5.4,10.440002,8.6,57.1,1017.62,0,0,0,0,0.033112
2022/06/10 03:08:00.005,n,269,9.72,9,10.08,8.6,57.1,1017.62,0,0,0,0,0.032272
2022/06/10 03:09:00.010,n,270,10.08,9.72,11.16,8.6,57.1,1017.62,0,0,0,0,0.033112
2022/06/10 03:10:00.000,n,272,7.56,6.12,9.36,8.6,57.2,1017.62,0,0,0,0,0.032272
2022/06/10 03:11:00.000,n,259,13.68,11.88,14.4,8.6,56.8,1017.62,0,0,0,0,0.033112
2022/06/10 03:12:00.000,n,278,7.92,6.48,9.36,8.6,57.1,1017.62,0,0,0,0,0.033989
2022/06/10 03:13:00.000,n,262,13.32,9,16.919998,8.6,56.9,1017.62,0,0,0,0,0.033112
2022/06/10 03:14:00.003,n,263,10.440002,9,11.52,8.6,57,1017.62,0,0,0,0,0.027924
2022/06/10 03:15:00.008,n,269,7.92,6.12,9.36,8.6,57.1,1017.62,0,0,0,0,0.032272
2022/06/10 03:16:00.000,n,267,10.440002,8.64,12.96,8.6,56.9,1017.62,0,0,0,0,0.031395
2022/06/10 03:17:00.001,n,270,9.36,6.12,12.24,8.5,57,1017.72,0,0,0,0,0.033112
2022/06/10 03:18:00.007,n,255,13.68,12.96,14.4,8.5,56.9,1017.72,0,0,0,0,0.02964
2022/06/10 03:19:00.000,n,267,9.36,8.64,10.440002,8.5,57,1017.72,0,0,0,0,0.031395
2022/06/10 03:20:00.000,n,262,14.76,12.96,17.64,8.5,57,1017.72,0,0,0,0,0.027008
2022/06/10 03:21:00.000,n,267,14.76,13.68,16.2,8.5,56.9,1017.72,0,0,0,0,0.032272
2022/06/10 03:22:00.000,n,257,10.8,9.72,11.88,8.5,57.1,1017.72,0,0,0,0,0.030518
2022/06/10 03:23:00.000,n,306,5.76,3.96,7.2,8.5,57.3,1017.72,0,0,0,0,0.031395
2022/06/10 03:24:00.004,n,300,3.6,2.88,4.32,8.5,57.4,1017.72,0,0,0,0,0.030518
2022/06/10 03:25:00.010,n,275,11.52,10.440002,11.88,8.5,57.2,1017.72,0,0,0,0,0.027008
2022/06/10 03:26:00.000,n,285,10.440002,9.72,11.16,8.5,57.3,1017.72,0,0,0,0,0.027924
2022/06/10 03:27:00.003,n,250,11.16,10.440002,12.24,8.5,57.3,1017.72,0,0,0,0,0.031395
2022/06/10 03:28:00.000,n,276,9,7.56,11.16,8.5,57.4,1017.72,0,0,0,0,0.031395
2022/06/10 03:29:00.000,n,265,17.64,9.72,20.519998,8.4,57.1,1017.72,0,0,0,0,0.028763
2022/06/10 03:30:00.002,n,249,12.6,8.28,15.12,8.4,57.4,1017.72,0,0,0,0,0.027924
2022/06/10 03:31:00.007,n,245,10.440002,9.72,11.16,8.4,57.5,1017.72,0,0,0,0,0.027924
2022/06/10 03:32:00.000,n,280,9,7.56,9.36,8.4,57.4,1017.72,0,0,0,0,0.02964
2022/06/10 03:33:00.000,n,240,10.440002,7.56,12.24,8.4,57.6,1017.72,0,0,0,0,0.030518
2022/06/10 03:34:00.007,n,279,8.64,7.92,9,8.4,57.6,1017.72,0,0,0,0,0.02964
2022/06/10 03:35:00.012,n,260,10.8,8.28,12.96,8.4,57.5,1017.72,0,0,0,0,0.028763
2022/06/10 03:36:00.000,n,261,14.4,13.32,16.2,8.4,57.4,1017.72,0,0,0,0,0.025291
2022/06/10 03:37:00.000,n,261,9.36,6.84,10.8,8.4,57.7,1017.72,0,0,0,0,0.026131
2022/06/10 03:38:00.000,n,259,7.2,5.76,9.72,8.3,57.7,1017.72,0,0,0,0,0.030518
2022/06/10 03:39:00.000,n,263,14.76,13.68,17.64,8.3,57.5,1017.72,0,0,0,0,0.02964
2022/06/10 03:40:00.004,n,269,9.72,5.4,12.96,8.3,57.7,1017.72,0,0,0,0,0.02964
2022/06/10 03:41:00.000,n,251,11.16,8.64,14.04,8.3,57.7,1017.72,0,0,0,0,0.032234
2022/06/10 03:42:00.000,n,263,12.96,11.16,14.4,8.3,57.6,1017.72,0,0,0,0,0.034828
2022/06/10 03:43:00.000,n,264,11.52,10.8,12.24,8.3,57.6,1017.62,0,0,0,0,0.031357
2022/06/10 03:44:00.005,n,270,9.72,7.92,11.16,8.3,57.8,1017.62,0,0,0,0,0.033073
2022/06/10 03:45:00.010,n,271,12.24,10.8,13.32,8.3,57.7,1017.62,0,0,0,0,0.035706
2022/06/10 03:46:00.000,n,268,7.92,2.16,10.8,8.3,57.9,1017.62,0,0,0,0,0.030479
2022/06/10 03:47:00.000,n,270,15.84,8.28,20.519998,8.3,57.2,1017.62,0,0,0,0,0.033951
2022/06/10 03:48:00.000,n,259,6.84,5.04,7.92,8.3,57.8,1017.62,0,0,0,0,0.031357
2022/06/10 03:49:00.000,n,247,14.4,12.6,17.64,8.3,57.6,1017.62,0,0,0,0,0.034828
2022/06/10 03:50:00.003,n,272,12.6,11.88,13.32,8.3,57.1,1017.62,0,0,0,0,0.032234
2022/06/10 03:51:00.008,n,260,12.24,11.16,13.68,8.3,57.5,1017.62,0,0,0,0,0.030479
2022/06/10 03:52:00.000,n,263,10.8,6.84,13.32,8.3,57.5,1017.62,0,0,0,0,0.030479
2022/06/10 03:53:00.001,n,270,16.56,14.76,19.08,8.3,57.2,1017.62,0,0,0,0,0.031357
2022/06/10 03:54:00.007,n,264,14.76,11.52,17.64,8.3,57.2,1017.62,0,0,0,0,0.029602
2022/06/10 03:55:00.000,n,263,17.28,16.2,17.64,8.3,57.2,1017.62,0,0,0,0,0.033073
2022/06/10 03:56:00.000,n,259,12.24,10.8,14.04,8.3,57.2,1017.62,0,0,0,0,0.028725
2022/06/10 03:57:00.000,n,272,18.359998,17.28,19.08,8.3,57.2,1017.62,0,0,0,0,0.028725
2022/06/10 03:58:00.000,n,254,12.6,11.88,13.32,8.3,57.6,1017.72,0,0,0,0,0.030479
2022/06/10 03:59:00.000,n,278,16.919998,14.4,18.72,8.3,57.4,1017.72,0,0,0,0,0.031357
2022/06/10 04:00:00.006,n,258,13.32,10.8,16.56,8.3,57.5,1017.72,0,0,0,0,0.031357
2022/06/10 04:01:00.011,n,271,13.68,12.24,15.48,8.3,57.5,1017.72,0,0,0,0,0.030479
2022/06/10 04:02:00.000,n,263,18,15.48,20.16,8.3,57.2,1017.72,0,0,0,0,0.030479
2022/06/10 04:03:00.006,n,264,14.04,11.52,18,8.3,57.4,1017.72,0,0,0,0,0.027847
2022/06/10 04:04:00.000,n,265,10.440002,5.76,13.32,8.3,57.5,1017.62,0,0,0,0,0.031357
2022/06/10 04:05:00.000,n,255,20.519998,16.56,25.56,8.3,56.8,1017.62,0,0,0,0,0.025253
2022/06/10 04:06:00.005,n,281,12.6,10.8,13.32,8.3,57.1,1017.62,0,0,0,0,0.025253
2022/06/10 04:07:00.000,n,247,13.32,10.8,15.12,8.3,57.2,1017.62,0,0,0,0,0.027008
2022/06/10 04:08:00.000,n,249,21.96,20.16,23.759998,8.3,56.8,1017.62,0,0,0,0,0.024376
2022/06/10 04:09:00.005,n,282,13.68,11.88,17.28,8.3,57.1,1017.52,0,0,0,0,0.021744
2022/06/10 04:10:00.010,n,281,7.56,2.16,13.32,8.3,57.4,1017.52,0,0,0,0,0.029602
2022/06/10 04:11:00.013,n,269,16.919998,14.76,19.08,8.3,57,1017.52,0,0,0,0,0.038338
2022/06/10 04:12:00.003,n,259,24.48,22.68,25.199998,8.3,56.9,1017.52,0,0,0,0,0.038338
2022/06/10 04:13:00.000,n,269,27.359998,25.56,29.519998,8.3,56.5,1017.52,0,0,0,0,0.035706
2022/06/10 04:14:00.000,n,239,15.48,3.96,19.44,8.3,57,1017.52,0,0,0,0,0.033989
2022/06/10 04:15:00.001,n,265,16.919998,15.48,17.64,8.3,57,1017.62,0,0,0,0,0.035706
2022/06/10 04:16:00.006,n,276,24.84,21.599998,28.08,8.3,56.4,1017.62,0,0,0,0,0.036583
2022/06/10 04:17:00.000,n,261,19.44,18,21.599998,8.3,56.6,1017.62,0,0,0,0,0.032234
2022/06/10 04:18:00.000,n,250,19.8,18,21.599998,8.3,56.6,1017.52,0,0,0,0,0.034828
2022/06/10 04:19:00.006,n,255,19.08,16.56,22.319998,8.3,56.7,1017.52,0,0,0,0,0.033073
2022/06/10 04:20:00.011,n,269,20.519998,14.76,22.319998,8.3,56.6,1017.62,0,0,0,0,0.032234
2022/06/10 04:21:00.016,n,248,14.76,11.88,17.64,8.3,56.8,1017.52,0,0,0,0,0.031357
2022/06/10 04:22:00.000,n,258,23.759998,20.880002,27.359998,8.3,55.8,1017.52,0,0,0,0,0.030479
2022/06/10 04:23:00.000,n,243,23.759998,23.4,24.84,8.3,56.6,1017.62,0,0,0,0,0.027885
2022/06/10 04:24:00.000,n,248,18,12.6,23.759998,8.4,56.2,1017.62,0,0,0,0,0.028725
2022/06/10 04:25:00.004,n,287,20.880002,18.72,22.68,8.4,56.3,1017.62,0,0,0,0,0.025253
2022/06/10 04:26:00.000,n,265,15.12,14.04,16.56,8.4,56.7,1017.62,0,0,0,0,0.027008
2022/06/10 04:27:00.000,n,259,9.72,7.56,12.6,8.4,57,1017.62,0,0,0,0,0.026131
2022/06/10 04:28:00.003,n,246,18.359998,16.56,20.519998,8.4,56.7,1017.52,0,0,0,0,0.025253
2022/06/10 04:29:00.008,n,255,24.48,18.359998,33.48,8.4,56,1017.52,0,0,0,0,0.025253
2022/06/10 04:30:00.014,n,264,23.759998,21.96,24.84,8.4,55.8,1017.62,0,0,0,0,0.023499
2022/06/10 04:31:00.000,n,267,12.24,6.12,18.72,8.4,56.6,1017.62,0,0,0,0,0.024376
2022/06/10 04:32:00.000,n,256,27,12.96,35.64,8.4,55.4,1017.52,0,0,0,0,0.023499
2022/06/10 04:33:00.000,n,237,18.72,16.2,21.24,8.4,56.4,1017.62,0,0,0,0,0.020905
2022/06/10 04:34:00.001,n,256,16.919998,14.4,18.72,8.4,56.1,1017.62,0,0,0,0,0.020905
2022/06/10 04:35:00.008,n,302,9.72,7.2,12.24,8.4,56.8,1017.62,0,0,0,0,0.021744
2022/06/10 04:36:00.000,n,260,17.64,16.919998,18.72,8.4,56.7,1017.72,0,0,0,0,0.018272
2022/06/10 04:37:00.003,n,272,18.72,14.4,21.24,8.3,56.3,1017.72,0,0,0,0,0.031357
2022/06/10 04:38:00.005,n,273,12.24,9,14.76,8.3,57,1017.72,0,0,0,0,0.033989
2022/06/10 04:39:00.010,n,267,10.8,9.36,12.6,8.3,57.1,1017.72,0,0,0,0,0.032234
2022/06/10 04:40:00.000,n,270,14.4,7.2,19.44,8.3,56.8,1017.72,0,0,0,0,0.033112
2022/06/10 04:41:00.000,n,265,15.48,14.4,18,8.3,56.9,1017.72,0,0,0,0,0.035744
2022/06/10 04:42:00.000,n,255,7.92,6.12,10.8,8.3,57,1017.72,0,0,0,0,0.03746
2022/06/10 04:43:00.000,n,244,11.52,7.56,18,8.3,57.2,1017.82,0,0,0,0,0.02964
2022/06/10 04:44:00.002,n,270,11.88,9.36,13.68,8.3,57.2,1017.82,0,0,0,0,0.032234
2022/06/10 04:45:00.009,n,251,15.84,14.4,16.56,8.3,56.7,1017.82,0,0,0,0,0.032234
2022/06/10 04:46:00.000,n,267,15.48,14.4,18,8.3,56.9,1017.82,0,0,0,0,0.032234
2022/06/10 04:47:00.002,n,264,11.16,9.36,12.6,8.3,57.4,1017.82,0,0,0,0,0.033112
2022/06/10 04:48:00.007,n,271,7.92,5.4,10.440002,8.3,57.4,1017.92,0,0,0,0,0.032234
2022/06/10 04:49:00.000,n,247,10.8,9,12.24,8.3,57.4,1017.82,0,0,0,0,0.033112
2022/06/10 04:50:00.001,n,245,12.96,11.16,14.76,8.3,57.3,1017.82,0,0,0,0,0.034828